OneWeb SL0131

operational
NORAD ID: 47270 Int'l Des: 2020-100 Owner: ONEWEB Country: UK Constellation: oneweb
LEOCIRCULARPOLARONEWEB_TYPE

Über OneWeb SL0131

Beschreibung wird geladen...

Live-Position

3D-Globus wird geladen...

Nächste Überflüge

Höhenverlauf

Altitude vs Time

uPlot chart will show altitude changes over time

Zweizeiliger Elementsatz

1 47270U 20100N 25350.15108674 -.00000137 00000-0 -41580-3 0 9994
2 47270 87.8931 27.0435 0001925 98.4332 261.7015 13.12414626240564
Epoch: 16. Dez. 2025 • Age: 17 hours

Aktueller Status

Höhe 1222.4 km
Geschwindigkeit 7.25 km/s
Subsatellitenpunkt 58.21°N, 167.09°E
Startdatum 18. Dez. 2020
Alter 4.9 years
Typ internet

Technische Details

Klassifizierung Payload
Masse 148.00 kg
Trockenmasse 140.00 kg
Gesamtmasse 148.00 kg
Länge 1.30 m
Durchmesser 1.00 m
Spannweite 5.00 m
Form Trapezoid+2 pan
Hersteller ONEWUS
Bus-Typ ARROW
Phasenstatus In Orbit
Besitzer/Staat ONEWEB/UK

Große Konstellationen

Loading constellations...